This is the latest recevied weather packets stored in our database for station/object KC8JWT. If no packets are shown the sender has not sent any weather packets the latest 10 day(s).
| Time | Temp. | Humidity | Pressure | Rain* | Wind** | Luminosity | Snow |
|---|---|---|---|---|---|---|---|
| 1778065507 | 14.44° C | 99% | 1006.8 hPa | 0 mm | - | 4 W/m² | - |
| 1778065203 | 14.44° C | 99% | 1006.7 hPa | 0 mm | - | 2 W/m² | - |
| 1778064899 | 14.44° C | 99% | 1006.8 hPa | 0 mm | - | 2 W/m² | - |
| 1778064597 | 13.89° C | 99% | 1006.5 hPa | 0 mm | - | 2 W/m² | - |
| 1778064295 | 13.89° C | 99% | 1006.4 hPa | 0 mm | - | 1 W/m² | - |
| 1778063993 | 13.89° C | 99% | 1006.5 hPa | 1.78 mm | - | 1 W/m² | - |
| 1778063689 | 13.89° C | 99% | 1006.5 hPa | 1.78 mm | - | 0 W/m² | - |
| 1778063386 | 13.89° C | 99% | 1006.4 hPa | 1.78 mm | - | 0 W/m² | - |
| 1778063084 | 13.89° C | 99% | 1006.4 hPa | 1.78 mm | - | 0 W/m² | - |
| 1778062781 | 13.89° C | 99% | 1006.5 hPa | 0 mm | - | 0 W/m² | - |
| 1778062478 | 13.89° C | 99% | 1006.3 hPa | 1.27 mm | - | 0 W/m² | - |
| 1778062175 | 13.89° C | 99% | 1006.5 hPa | 3.05 mm | - | 0 W/m² | - |
| 1778061873 | 13.89° C | 99% | 1006.2 hPa | 1.78 mm | - | 0 W/m² | - |
| 1778061571 | 13.89° C | 99% | 1006.5 hPa | 0 mm | - | 0 W/m² | - |
| 1778061269 | 13.89° C | 99% | 1006.5 hPa | 1.27 mm | - | 0 W/m² | - |
| 1778060965 | 13.89° C | 99% | 1006.7 hPa | 1.27 mm | - | 0 W/m² | - |
| 1778060664 | 13.89° C | 99% | 1006.5 hPa | 7.87 mm | - | 0 W/m² | - |
| 1778060361 | 13.89° C | 99% | 1006.8 hPa | 7.87 mm | - | 0 W/m² | - |
| 1778059454 | 13.89° C | 99% | 1006.8 hPa | 0 mm | - | 0 W/m² | - |
| 1778059150 | 13.89° C | 99% | 1006.9 hPa | 1.27 mm | - | 0 W/m² | - |
| 1778058849 | 13.89° C | 99% | 1006.8 hPa | 1.27 mm | - | 0 W/m² | - |
| 1778058546 | 13.89° C | 99% | 1006.7 hPa | 10.67 mm | - | 0 W/m² | - |
| 1778058243 | 13.89° C | 99% | 1006.7 hPa | 10.67 mm | - | 0 W/m² | - |
| 1778057636 | 13.89° C | 99% | 1006.9 hPa | 0 mm | - | 0 W/m² | - |
| 1778057333 | 13.89° C | 99% | 1006.8 hPa | 0 mm | - | 0 W/m² | - |
* Rain latest hour (hover to see other rain measurements)
** Current wind speed in m/s (hover to see current wind gust speed)